Time,B instrument,Bx,By,Bz,sigma B,Ion instrument,Status,Tp_par,Tp_perp,carrot,r_sun,clat,clong,earth_he_angle,n_p,vp_x,vp_y,vp_z,vth_p_par,vth_p_perp
1980-04-11 00:02:13,-1,nan,nan,nan,nan,1,3,nan,nan,1694,0.80183178,-4.6183767,328.89087,274.39868,nan,342.672,3.97679,19.9535,nan,nan
1980-04-11 00:05:14,1,4.63333,-0.866667,3.3,0.194365,1,1,32250.7,28973.7,1694,0.80181509,-4.6185894,328.86377,274.39893,11.6663,335.549,7.42859,12.4382,23.0742,21.8706
1980-04-11 00:10:38,1,3.93333,-0.2,4.9,0.169967,1,1,25039.5,24353.6,1694,0.80178732,-4.6189432,328.81323,274.39917,13.323,337.988,2.89428,13.0646,20.3316,20.0512
1980-04-11 00:16:02,1,3.93333,0.0666667,4.9,0.210819,1,1,23022.3,28441.4,1694,0.80175394,-4.6193676,328.7627,274.39941,12.2969,338.91,3.99599,15.4759,19.4954,21.6687
1980-04-11 00:21:26,1,4.475,-0.075,5.3,0.136931,1,1,21231.4,22334.9,1694,0.80172616,-4.6197214,328.71606,274.39966,13.1472,338.722,2.0746,13.7559,18.7218,19.2022
1980-04-11 00:26:50,1,4.06667,-0.1,5.3,0.298142,1,1,26460.4,28760.0,1694,0.80169833,-4.6200762,328.66553,274.3999,12.4533,340.004,4.49347,13.9712,20.9005,21.7897
1980-04-11 00:32:14,1,3.46667,-0.1,5.5,0.394405,1,1,30410.2,24296.7,1694,0.80166495,-4.6205006,328.61499,274.40015,12.6447,337.388,0.330239,12.6142,22.4061,20.0277
1980-04-11 00:37:38,1,4.63333,0.433333,4.86667,0.2,1,1,20492.3,26606.4,1694,0.80163717,-4.6208544,328.56836,274.40039,10.7071,342.014,2.90548,14.3597,18.393,20.9581
1980-04-11 00:54:18,-1,nan,nan,nan,nan,1,4,nan,nan,1694,0.80154264,-4.6220579,328.41284,274.40112,nan,nan,nan,nan,nan,nan
1980-04-11 00:57:00,1,3.4,-0.1,4.5,0.173205,1,1,23386.7,31494.5,1694,0.80152595,-4.6222706,328.38965,274.40137,12.0683,336.356,0.593795,10.3274,19.6491,22.8021
1980-04-11 00:58:32,1,3.4,-0.1,4.33333,0.188562,1,1,23060.3,35370.9,1694,0.80154866,-4.5051951,328.28653,274.31387,12.4178,337.144,0.468875,10.0617,19.5115,24.1647
1980-04-11 00:59:42,1,3.3,0.133333,4.6,0.359011,1,1,15339.9,21308.0,1694,0.80151486,-4.6224117,328.36621,274.40137,13.1709,337.068,1.54762,13.4032,15.9137,18.7555
1980-04-11 01:01:15,1,2.8,0.166667,4.86667,0.405518,1,1,17405.2,24939.6,1694,0.80150372,-4.6225538,328.35083,274.40161,13.154,336.389,1.9913,11.6501,16.9511,20.291
1980-04-11 01:03:57,1,2.2,0.633333,5.0,0.329983,1,1,29708.2,35208.4,1694,0.80149257,-4.6226959,328.32739,274.40161,14.1401,334.83,2.092,7.18471,22.1461,24.1091
1980-04-11 01:06:39,1,2.56667,0.366667,4.6,0.194365,1,1,29076.3,24773.6,1694,0.80147588,-4.6229076,328.30029,274.40186,14.0328,335.567,3.20152,6.43266,21.9092,20.2233
1980-04-11 01:09:21,1,2.5,0.8,4.2,1.11022e-16,1,1,28289.0,33612.0,1694,0.80145919,-4.6231203,328.27686,274.40186,13.9545,335.559,2.84587,9.41158,21.6106,23.5562
1980-04-11 01:12:03,1,2.76667,0.866667,4.33333,0.270801,1,1,23976.1,25136.6,1694,0.8014425,-4.623333,328.25366,274.4021,13.6382,335.823,3.37937,10.0018,19.8951,20.371
1980-04-11 01:14:45,1,2.5,-0.75,6.5,0.269258,1,1,18888.5,16505.5,1694,0.80143136,-4.6234751,328.22656,274.40234,11.5397,332.904,7.89585,10.9599,17.6586,16.5072
1980-04-11 01:17:27,1,2.53333,-0.8,6.3,0.169967,1,1,13740.1,18207.2,1694,0.80141467,-4.6236877,328.20313,274.40234,14.7622,333.834,3.47694,11.367,15.061,17.3372
1980-04-11 01:20:09,1,2.1,-0.7,6.83333,0.188562,1,1,19294.0,20283.4,1694,0.80139798,-4.6239004,328.17993,274.40259,12.0209,332.403,9.37195,11.7281,17.8471,18.299
1980-04-11 01:22:51,1,1.6,-1.23333,6.9,0.329983,1,1,15631.7,19380.4,1694,0.80138683,-4.6240425,328.15259,274.40259,13.7645,333.646,4.1783,11.7904,16.0643,17.8871
1980-04-11 01:25:33,1,1.66667,-0.9,7.26667,0.266667,1,1,20288.3,17663.8,1694,0.80137014,-4.6242542,328.12939,274.40283,11.8288,332.726,9.36136,7.94768,18.3012,17.0766
1980-04-11 01:28:15,1,1.43333,-1.13333,6.8,0.194365,1,1,22439.0,18992.8,1694,0.80135345,-4.6244669,328.1062,274.40308,14.1662,335.2,4.72133,4.14626,19.2468,17.7073
1980-04-11 01:30:57,1,1.13333,-1.46667,7.2,0.210819,1,1,17851.2,16039.4,1694,0.80134231,-4.624609,328.07886,274.40308,13.472,331.788,10.6766,7.81248,17.1669,16.2724
1980-04-11 01:33:39,1,1.4,-1.0,7.06667,0.188562,1,1,12790.5,17331.3,1694,0.80132562,-4.6248217,328.05566,274.40332,15.5233,331.295,4.26927,11.5072,14.5312,16.9151
1980-04-11 01:36:21,1,2.86667,0.233333,7.26667,0.46188,1,1,20316.0,20513.6,1694,0.80130893,-4.6250343,328.03223,274.40332,10.164,331.209,7.78246,9.60701,18.3137,18.4026
1980-04-11 01:39:03,1,2.4,0.733333,7.53333,0.380058,1,1,22709.8,21327.7,1694,0.80129224,-4.625247,328.00513,274.40356,11.6274,333.574,5.85102,8.72936,19.3627,18.7642
1980-04-11 01:41:45,1,2.8,0.466667,7.26667,0.24037,1,1,16135.8,19944.4,1694,0.80128109,-4.6253891,327.98169,274.40356,10.812,333.704,9.54841,12.8245,16.3212,18.1455
1980-04-11 01:44:27,1,3.275,0.475,7.25,0.407738,1,1,13592.5,18272.4,1694,0.80126441,-4.6256008,327.9585,274.40381,13.0595,335.564,3.40307,13.805,14.9798,17.3682
1980-04-11 01:47:09,1,2.65,-0.7,8.0,0.269258,1,1,25636.7,18353.4,1694,0.80124772,-4.6258135,327.9314,274.40405,10.2358,332.307,8.64171,11.1496,20.5726,17.4067
1980-04-11 01:49:51,1,2.8,-0.366667,8.1,0.221108,1,1,23341.7,21692.2,1694,0.80123657,-4.6259556,327.90796,274.40405,11.6086,332.695,3.38366,9.18812,19.6302,18.9239
1980-04-11 01:52:33,1,2.76667,-0.566667,8.13333,0.305505,1,1,22950.8,19167.8,1694,0.80121988,-4.6261683,327.88477,274.4043,9.49798,330.06,7.05687,7.90283,19.4651,17.7887
1980-04-11 01:55:15,1,2.9,-0.3,8.06667,0.188562,1,1,23659.4,20909.5,1694,0.80120313,-4.6263809,327.85742,274.4043,10.9792,333.34,3.57771,8.94877,19.7633,18.5793
1980-04-11 01:57:57,1,2.9,-0.3,8.2,0.0,1,1,22528.6,18134.1,1694,0.80119205,-4.626523,327.83423,274.40454,9.15175,331.781,6.24286,8.19904,19.2852,17.3024
1980-04-11 02:03:21,1,3.5,-0.0666667,7.86667,0.290593,1,1,21448.0,17738.6,1694,0.80115861,-4.6269484,327.78369,274.40479,9.45288,331.616,8.08476,8.66429,18.817,17.1127
1980-04-11 02:06:03,1,3.33333,-0.3,7.93333,0.24037,1,1,23320.6,20247.5,1694,0.80114192,-4.627161,327.7605,274.40503,10.6239,332.248,3.10446,8.63802,19.6213,18.2829
1980-04-11 02:08:45,1,3.43333,-0.133333,7.9,0.253859,1,1,25788.6,18922.4,1694,0.80113077,-4.6273022,327.73706,274.40503,10.2978,332.034,8.45255,9.73372,20.6334,17.6745
1980-04-11 02:11:27,1,3.1,-0.7,7.9,0.173205,1,1,23465.8,20899.2,1694,0.80111402,-4.6275158,327.70996,274.40527,11.4521,333.499,2.37225,10.269,19.6823,18.5747
1980-04-11 02:14:09,1,3.13333,-0.233333,7.66667,0.258199,1,1,24161.8,21204.9,1694,0.80109733,-4.6277285,327.68652,274.40527,9.90692,333.93,5.5402,11.6889,19.9721,18.7101
1980-04-11 02:16:51,1,3.3,-0.166667,8.33333,0.194365,1,1,25228.9,22470.4,1694,0.80108619,-4.6278696,327.66333,274.40552,9.15534,336.005,4.16565,17.4069,20.4083,19.2603
1980-04-11 02:19:33,1,3.3,0.7,8.1,4.57757e-16,1,1,22726.3,22742.6,1694,0.8010695,-4.6280832,327.63599,274.40552,9.5787,333.518,9.98173,11.4219,19.3697,19.3766
1980-04-11 02:22:15,1,3.16667,0.366667,8.03333,0.476095,1,1,28488.7,20098.4,1694,0.80105275,-4.6282959,327.61279,274.40576,11.4383,333.349,6.29716,5.02174,21.6868,18.2154
1980-04-11 02:24:57,1,2.825,-0.125,8.0,0.385681,1,1,25231.7,23198.5,1694,0.8010416,-4.628437,327.58936,274.40576,10.4543,330.558,8.19572,9.50516,20.4095,19.5698
1980-04-11 02:27:39,1,2.15,0.725,7.15,0.319179,1,1,20872.9,22702.4,1694,0.80102491,-4.6286497,327.56226,274.40601,13.4131,332.415,6.48014,11.5858,18.563,19.3595
1980-04-11 02:30:21,1,1.975,0.675,7.175,0.188746,1,1,22177.6,20989.6,1694,0.80100822,-4.6288633,327.53906,274.40625,13.7121,330.2,9.42536,13.9903,19.1344,18.6149
1980-04-11 02:33:03,1,1.63333,0.4,7.1,0.349603,1,1,23091.0,21364.1,1694,0.80099148,-4.629076,327.51563,274.40625,15.8861,328.972,4.41704,14.5986,19.5245,18.7802
1980-04-11 02:35:45,1,1.0,-0.3,6.66667,0.188562,1,1,16693.6,24911.1,1694,0.80098033,-4.6292171,327.48853,274.40649,15.0557,325.82,1.93988,15.7866,16.6009,20.2794
1980-04-11 02:38:27,1,0.433333,-0.833333,7.33333,0.424264,1,1,18352.8,20872.8,1694,0.80096364,-4.6294298,327.46509,274.40649,17.2248,326.971,1.5073,15.5776,17.4064,18.563
1980-04-11 02:41:09,1,1.36667,-0.766667,7.86667,0.424264,1,1,26722.6,17425.9,1694,0.80094689,-4.6296434,327.44189,274.40674,12.8797,322.708,-4.58193,15.5852,21.0038,16.9611
1980-04-11 02:43:51,1,4.16667,0.233333,6.5,0.210819,1,1,18391.4,19874.0,1694,0.80093575,-4.6297846,327.41455,274.40674,14.2442,338.983,4.26446,15.6092,17.4247,18.1134
1980-04-11 02:46:33,1,4.4,0.35,7.175,0.253722,1,1,20615.6,22810.1,1694,0.80091906,-4.6299973,327.39136,274.40698,9.73812,336.583,7.51711,11.0094,18.4483,19.4053
1980-04-11 02:49:15,-1,nan,nan,nan,nan,1,4,nan,nan,1694,0.80090237,-4.6302099,327.36792,274.40698,nan,nan,nan,nan,nan,nan
1980-04-11 02:51:57,1,5.4,0.8,6.8,0.0,1,1,18591.0,18995.1,1694,0.80089122,-4.630352,327.34082,274.40723,8.97496,331.948,7.63041,11.816,17.519,17.7084
1980-04-11 02:54:39,1,5.4,0.8,6.4,1.26097e-15,1,1,16444.2,14849.9,1694,0.80090213,-4.5136476,327.22986,274.3197,11.3672,339.137,5.83788,13.9092,16.4765,15.6574
1980-04-11 02:57:19,1,5.1,0.65,6.8,0.193649,1,1,22982.4,23852.3,1694,0.80085778,-4.6307774,327.29419,274.40747,7.92522,335.893,7.37777,13.3981,19.4785,19.8437
1980-04-11 03:35:57,-1,nan,nan,nan,nan,1,3,nan,nan,1694,0.80064589,-4.6334705,326.94067,274.40942,nan,348.756,4.83785,17.9788,nan,nan
1980-04-11 03:57:33,-1,nan,nan,nan,nan,1,3,nan,nan,1694,0.80052316,-4.6350298,326.74268,274.41064,nan,344.529,5.42978,13.3186,nan,nan
1980-04-11 04:08:21,-1,nan,nan,nan,nan,1,3,nan,nan,1694,0.80046177,-4.6358089,326.64551,274.41113,nan,350.692,13.0019,15.7679,nan,nan
1980-04-11 04:19:09,-1,nan,nan,nan,nan,1,3,nan,nan,1694,0.80040038,-4.6365891,326.54468,274.41187,nan,349.874,6.64869,17.9817,nan,nan
1980-04-11 04:29:57,-1,nan,nan,nan,nan,1,3,nan,nan,1694,0.80034453,-4.6372986,326.44751,274.41235,nan,350.76,12.9711,20.6918,nan,nan
1980-04-11 04:40:45,-1,nan,nan,nan,nan,1,3,nan,nan,1694,0.80028313,-4.6380787,326.35034,274.41284,nan,348.479,7.24979,16.5879,nan,nan
1980-04-11 04:51:33,-1,nan,nan,nan,nan,1,3,nan,nan,1694,0.80022174,-4.6388588,326.24951,274.41357,nan,347.402,13.0133,11.6116,nan,nan
1980-04-11 05:02:21,-1,nan,nan,nan,nan,1,3,nan,nan,1694,0.80016029,-4.6396389,326.15234,274.41406,nan,347.005,5.28018,11.9207,nan,nan
1980-04-11 05:13:09,-1,nan,nan,nan,nan,1,3,nan,nan,1694,0.80009884,-4.640419,326.05518,274.41455,nan,345.077,11.5653,9.59349,nan,nan
1980-04-11 05:23:57,-1,nan,nan,nan,nan,1,3,nan,nan,1694,0.80004293,-4.6411285,325.9541,274.41504,nan,345.979,4.96215,11.5291,nan,nan
1980-04-11 05:34:45,-1,nan,nan,nan,nan,1,3,nan,nan,1694,0.79998147,-4.6419086,325.85693,274.41553,nan,343.706,11.2234,10.0488,nan,nan
1980-04-11 05:45:33,-1,nan,nan,nan,nan,1,3,nan,nan,1694,0.79992002,-4.6426888,325.76001,274.41626,nan,344.28,5.26974,8.27796,nan,nan
1980-04-11 05:56:21,-1,nan,nan,nan,nan,1,3,nan,nan,1694,0.79985857,-4.6434689,325.65894,274.41675,nan,340.466,9.60959,10.0442,nan,nan
1980-04-11 06:07:09,-1,nan,nan,nan,nan,1,3,nan,nan,1694,0.79979706,-4.644249,325.56177,274.41724,nan,340.662,4.63015,9.74428,nan,nan
1980-04-11 06:17:57,-1,nan,nan,nan,nan,1,3,nan,nan,1694,0.79974109,-4.6449585,325.4646,274.41772,nan,339.415,11.0017,13.0949,nan,nan
1980-04-11 06:28:45,-1,nan,nan,nan,nan,1,3,nan,nan,1694,0.79967958,-4.6457386,325.36377,274.41846,nan,337.769,4.82341,10.7799,nan,nan
1980-04-11 06:39:33,-1,nan,nan,nan,nan,1,3,nan,nan,1694,0.79961807,-4.6465187,325.26685,274.41919,nan,336.395,9.72475,12.8849,nan,nan
1980-04-11 06:40:37,-1,nan,nan,nan,nan,1,3,nan,nan,1694,0.79961246,-4.6465893,325.25513,274.41919,nan,300.588,27.3362,12.4739,nan,nan
1980-04-11 06:50:21,-1,nan,nan,nan,nan,1,3,nan,nan,1694,0.79955655,-4.6472988,325.16577,274.41968,nan,337.104,2.88857,12.1907,nan,nan
1980-04-11 07:01:09,1,5.1,0.6,3.2,0.0,1,1,16478.8,25660.3,1694,0.79949504,-4.6480789,325.06885,274.42041,18.1149,332.267,2.17192,8.24111,16.4938,20.582
1980-04-11 07:11:49,1,5.1,0.6,3.2,0.0,1,1,22575.6,15974.0,1694,0.7994656,-4.5323887,324.88397,274.33319,23.4626,334.917,3.21026,11.3072,19.3053,16.2392
1980-04-11 07:45:06,1,4.68333,0.4,1.93333,0.153659,1,1,17629.7,22716.3,1694,0.7992487,-4.6512012,324.6687,274.42261,18.4129,331.728,3.27141,14.2607,17.0601,19.3654
1980-04-11 07:46:27,1,4.83333,0.5,1.86667,0.272845,1,1,21660.3,17145.2,1694,0.79924309,-4.6512728,324.65698,274.42261,23.1332,332.102,3.13813,13.4278,18.9099,16.824
1980-04-11 07:47:48,1,4.75,1.18333,1.86667,0.340751,1,1,19199.6,27714.6,1694,0.79923749,-4.6513433,324.64551,274.42285,17.9111,329.428,2.61468,11.0843,17.8034,21.3901
1980-04-11 07:48:17,1,4.75,1.18333,2.0,0.365908,1,1,21480.8,17762.6,1694,0.79923189,-4.6514149,324.6377,274.42285,21.6719,330.865,1.62989,12.4791,18.8314,17.1242
1980-04-11 07:49:38,1,4.68571,1.17143,1.88571,0.416006,1,1,18530.0,28467.9,1694,0.79922628,-4.6514854,324.62598,274.42285,17.3053,330.604,-0.34666,11.7885,17.4902,21.6788
1980-04-11 07:50:59,1,4.61429,1.47143,1.94286,0.261861,1,1,22146.6,18841.5,1694,0.79922068,-4.651556,324.61426,274.42285,20.7559,332.264,0.729664,13.6938,19.121,17.6366
1980-04-11 07:52:20,1,4.58333,1.41667,2.06667,0.291548,1,1,18300.4,27441.1,1694,0.79920948,-4.6516981,324.60278,274.4231,17.7047,330.461,-2.35206,10.9779,17.3815,21.2843
1980-04-11 07:53:41,1,4.2,1.65714,1.71429,0.308386,1,1,22936.5,19327.2,1694,0.79920387,-4.6517696,324.59106,274.4231,20.6437,332.512,-0.049813,13.3772,19.4591,17.8625
1980-04-11 07:55:02,1,4.31429,1.55714,2.17143,0.282843,1,1,20358.9,21420.1,1694,0.79919267,-4.6519108,324.57935,274.4231,18.3317,331.339,-5.68203,12.8551,18.3331,18.8048
1980-04-11 08:01:18,1,4.85,1.7,2.26667,0.338707,1,1,18560.5,24958.4,1694,0.79915911,-4.6523371,324.52124,274.42358,16.6161,332.46,-3.70842,9.88149,17.5046,20.2986
1980-04-11 08:02:39,1,4.48333,1.73333,2.33333,0.275379,1,1,23359.7,20634.0,1694,0.79915345,-4.6524076,324.50952,274.42358,19.3827,332.429,0.289222,11.3486,19.6378,18.4565
1980-04-11 08:04:00,1,4.5,1.5,2.4,0.270801,1,1,18559.4,25326.9,1694,0.79914224,-4.6525497,324.4978,274.42358,16.9694,330.463,-3.11708,9.28332,17.5041,20.4479
1980-04-11 08:04:29,1,4.64286,1.72857,2.4,0.126168,1,1,23204.4,20593.1,1694,0.79914224,-4.6525497,324.48999,274.42358,19.6068,331.361,0.488139,10.5794,19.5723,18.4382
1980-04-11 08:05:50,1,4.7,1.3,2.17143,0.197949,1,1,18046.5,26654.8,1694,0.79913664,-4.6526203,324.47852,274.42383,17.9904,329.266,-0.45502,8.37466,17.2605,20.9771
1980-04-11 08:07:11,1,4.87143,1.15714,2.68571,0.424264,1,1,22935.8,17215.1,1694,0.79912543,-4.6527624,324.4668,274.42383,22.0339,329.386,0.712788,10.3749,19.4588,16.8583
1980-04-11 08:08:32,1,4.88333,1.26667,2.66667,0.390512,1,1,17996.8,25527.3,1694,0.79911983,-4.652833,324.45508,274.42383,18.1547,329.062,-2.92146,6.48,17.2368,20.5286
1980-04-11 08:09:53,1,4.77143,1.37143,2.68571,0.191663,1,1,25445.2,18065.2,1694,0.79911423,-4.6529045,324.44336,274.42383,21.0401,331.133,1.1917,9.40059,20.4956,17.2695
1980-04-11 08:11:14,1,4.82857,1.14286,3.08571,0.450397,1,1,19515.9,27467.7,1694,0.79910302,-4.6530466,324.43188,274.42407,18.8153,328.353,-1.24851,7.49133,17.9495,21.2946
1980-04-11 08:12:35,1,4.81667,0.933333,2.73333,0.485627,1,1,23320.9,17032.2,1694,0.79909742,-4.6531172,324.41626,274.42407,22.0004,330.11,1.32183,10.4808,19.6214,16.7685
1980-04-11 08:13:56,1,5.1,0.6,3.2,9.93014e-16,1,1,17540.7,27025.0,1694,0.79909182,-4.6531878,324.40454,274.42407,18.4613,330.198,-2.01088,7.44592,17.017,21.1223
1980-04-11 08:15:17,1,4.8,1.24286,2.57143,0.356857,1,1,25067.9,18027.6,1694,0.79908061,-4.6533298,324.39307,274.42432,22.4781,331.411,1.00487,9.48076,20.3431,17.2515
1980-04-11 08:16:38,1,4.85714,0.185714,2.17143,0.287849,1,1,19244.6,26587.7,1694,0.79907501,-4.6534004,324.38135,274.42432,18.5752,329.654,3.14468,8.54042,17.8243,20.9507
1980-04-11 08:17:59,1,4.8,0.485714,1.77143,0.370879,1,1,21101.3,16660.0,1694,0.7990694,-4.6534719,324.36963,274.42432,22.9119,331.856,2.35312,12.4612,18.6643,16.5842
1980-04-11 08:19:20,1,4.74286,0.428571,2.0,0.126168,1,1,18961.7,26498.6,1694,0.7990582,-4.6536131,324.35815,274.42456,20.4332,329.569,-0.397685,8.25512,17.6928,20.9155
1980-04-11 08:20:41,1,4.25,1.06667,2.16667,0.436208,1,1,20493.4,15792.7,1694,0.7990526,-4.6536846,324.34253,274.42456,25.2079,331.281,0.637879,12.4143,18.3935,16.1468
1980-04-11 08:22:02,1,3.83333,1.1,1.5,0.262467,1,1,14983.3,23917.9,1694,0.79904139,-4.6538267,324.33081,274.42456,20.2847,329.909,-2.04801,11.4158,15.7275,19.871
1980-04-11 08:23:23,1,3.73333,1.13333,1.7,0.253859,1,1,18166.2,15495.1,1694,0.79903579,-4.6538973,324.31909,274.42456,26.0579,331.756,0.909137,13.4083,17.3177,15.9939
1980-04-11 08:24:44,1,3.81429,1.11429,1.81429,0.289264,1,1,15771.5,16361.0,1694,0.79903018,-4.6539679,324.30762,274.4248,21.1441,330.283,-6.19352,12.4342,16.136,16.4347
1980-04-11 08:26:05,1,3.77143,1.42857,2.02857,0.298294,1,1,18838.3,14815.4,1694,0.79901898,-4.65411,324.2959,274.4248,26.4226,331.859,-0.30765,12.5166,17.6351,15.6392
1980-04-11 08:27:26,1,3.82857,1.2,2.21429,0.325764,1,1,14198.3,24714.8,1694,0.79901338,-4.6541805,324.28418,274.4248,19.9144,329.369,-2.04908,8.638,15.31,20.1993
1980-04-11 08:28:47,1,3.93333,0.966667,2.23333,0.251661,1,1,20128.2,15279.6,1694,0.79900777,-4.6542521,324.2688,274.42505,25.0262,330.786,1.24791,10.3207,18.2289,15.8823
1980-04-11 08:31:29,1,4.72857,1.22857,2.34286,0.493633,1,1,21626.1,16133.4,1694,0.79899091,-4.6544647,324.24536,274.42505,23.5407,330.407,1.55961,9.7611,18.895,16.32
1980-04-11 08:32:50,1,4.8,0.5,2.32857,0.596931,1,1,14751.0,25898.7,1694,0.7989853,-4.6545353,324.23364,274.42505,16.9953,330.215,0.590105,5.58103,15.6052,20.6775
1980-04-11 08:34:11,1,3.95,0.7,1.96667,0.45977,1,1,21176.5,14031.8,1694,0.7989741,-4.6546774,324.22217,274.42529,27.5447,331.666,1.68121,10.9783,18.6975,15.22
1980-04-11 08:35:32,1,4.38333,1.2,1.95,0.311805,1,1,15444.3,25406.9,1694,0.79896849,-4.654748,324.21045,274.42529,19.8702,329.693,-1.27585,8.23154,15.9677,20.4802
1980-04-11 08:36:53,1,4.7,0.5,2.4,0.0,1,1,18527.6,12450.4,1694,0.79896289,-4.6548195,324.19482,274.42529,28.3658,328.617,1.85998,10.6468,17.4891,14.3367
1980-04-11 08:38:14,-1,nan,nan,nan,nan,1,4,nan,nan,1694,0.79895169,-4.6549606,324.18335,274.42554,nan,nan,nan,nan,nan,nan
1980-04-11 08:39:35,1,4.41429,1.17143,1.77143,0.28212,1,1,18899.8,14379.8,1694,0.79894608,-4.6550322,324.17163,274.42554,25.4261,328.66,1.33824,12.0669,17.6639,15.4076
1980-04-11 08:40:56,1,4.64286,1.28571,2.0,0.144279,1,1,16393.6,23573.4,1694,0.79894048,-4.6551027,324.15991,274.42554,19.0789,327.883,-2.63014,9.71913,16.4511,19.7274
1980-04-11 08:43:36,-1,nan,nan,nan,nan,1,4,nan,nan,1694,0.79892367,-4.6553154,324.13672,274.42578,nan,nan,nan,nan,nan,nan
1980-04-11 08:44:57,-1,nan,nan,nan,nan,1,3,nan,nan,1694,0.79891807,-4.6553869,324.12109,274.42578,nan,330.384,0.959649,8.57015,nan,nan
1980-04-11 08:47:41,1,4.98,1.74,2.08,0.271293,1,1,21095.8,15574.2,1694,0.79890126,-4.6555996,324.0979,274.42603,21.9604,331.716,1.46747,10.0917,18.6619,16.0347
1980-04-11 08:49:02,1,4.64286,1.82857,2.0,0.248259,1,1,16311.5,22340.5,1694,0.79889005,-4.6557407,324.08618,274.42603,17.6917,329.576,-4.2189,8.4286,16.4099,19.2045
1980-04-11 08:50:23,1,5.07143,1.94286,1.95714,0.209956,1,1,22913.8,17780.4,1694,0.79888445,-4.6558123,324.07446,274.42603,19.9096,330.937,1.04647,9.87943,19.4494,17.1328
1980-04-11 08:51:44,-1,nan,nan,nan,nan,1,4,nan,nan,1694,0.79887885,-4.6558828,324.06299,274.42627,nan,nan,nan,nan,nan,nan
1980-04-11 08:54:26,1,5.33333,1.96667,2.36667,0.208167,1,1,17568.8,21235.5,1694,0.79886204,-4.6560955,324.03564,274.42627,16.6519,329.011,-4.78718,7.82067,17.0306,18.7236
1980-04-11 10:06:15,-1,nan,nan,nan,nan,1,3,nan,nan,1694,0.7984581,-4.6612062,323.38354,274.43042,nan,325.007,0.642973,4.19415,nan,nan
1980-04-11 10:07:36,1,3.33333,0.433333,1.96667,0.46188,1,1,13753.8,21885.7,1694,0.7984525,-4.6612768,323.36792,274.43042,20.321,325.223,-1.23113,4.13774,15.0685,19.0081
1980-04-11 10:08:57,1,3.35,0.116667,2.13333,0.442844,1,1,28990.1,8020.9,1694,0.79844689,-4.6613483,323.3562,274.43042,44.5448,326.044,1.70803,3.47709,21.8767,11.5072
1980-04-11 10:10:18,1,2.95,0.383333,2.26667,0.32059,1,1,13971.9,25214.3,1694,0.79843563,-4.6614904,323.34473,274.43066,22.2834,325.013,0.513003,2.95345,15.1875,20.4024
1980-04-11 10:11:41,-1,nan,nan,nan,nan,1,4,nan,nan,1694,0.79843003,-4.661561,323.33301,274.43066,nan,nan,nan,nan,nan,nan
1980-04-11 10:13:02,1,2.9,0.5,2.46667,0.188562,1,1,13872.4,25276.7,1694,0.79841882,-4.6617031,323.32129,274.43066,21.4723,325.804,-0.312262,2.86014,15.1333,20.4276
1980-04-11 10:14:23,1,2.7,0.416667,2.26667,0.2651,1,1,21816.6,10524.8,1694,0.79841316,-4.6617737,323.30591,274.43091,33.9528,326.399,1.28074,4.02129,18.978,13.1815
1980-04-11 10:15:44,1,2.86667,0.566667,2.33333,0.251661,1,1,14073.4,24698.2,1694,0.79840755,-4.6618452,323.29419,274.43091,22.275,325.996,-1.41747,2.50567,15.2425,20.1925
1980-04-11 10:17:05,1,2.6,0.833333,2.2,0.169967,1,1,22447.2,13756.0,1694,0.79839635,-4.6619873,323.28247,274.43091,26.8997,325.96,1.23399,4.22766,19.2504,15.0697
1980-04-11 10:18:26,1,2.9,0.5,2.2,4.44089e-16,1,1,13687.0,23415.6,1694,0.79839075,-4.6620579,323.27075,274.43091,21.5209,326.109,-1.49404,3.38338,15.0318,19.6612
1980-04-11 10:19:47,1,2.75714,0.914286,2.3,0.21571,1,1,21294.1,13471.8,1694,0.79838508,-4.6621284,323.25928,274.43115,28.4136,326.559,0.801453,5.36675,18.7494,14.9132
1980-04-11 10:21:08,1,2.86667,0.866667,2.3,0.307318,1,1,13965.6,23918.7,1694,0.79837388,-4.6622705,323.24756,274.43115,21.1109,324.797,0.925425,3.85705,15.1841,19.8713
1980-04-11 10:22:29,1,2.58571,1.22857,2.3,0.245781,1,1,20386.1,14132.6,1694,0.79836828,-4.6623421,323.23193,274.43115,25.9486,325.512,0.825213,5.85586,18.3453,15.2746
1980-04-11 10:23:50,1,2.56667,1.23333,2.25,0.200693,1,1,14432.6,20951.3,1694,0.79836267,-4.6624126,323.22021,274.43115,20.3704,325.227,-3.05436,5.13906,15.4358,18.5979
1980-04-11 10:25:11,1,2.78333,0.0333333,0.933333,0.492443,1,1,15329.5,9620.85,1694,0.79835141,-4.6625547,323.20874,274.4314,46.9636,326.931,2.66106,13.4468,15.9082,12.6027
1980-04-11 10:26:32,1,2.6,-0.5,0.866667,0.372678,1,1,14810.1,13456.7,1694,0.7983458,-4.6626253,323.19702,274.4314,23.2777,324.984,11.5124,12.0398,15.6364,14.9048
1980-04-11 10:27:53,-1,nan,nan,nan,nan,1,4,nan,nan,1694,0.7983402,-4.6626968,323.1853,274.4314,nan,nan,nan,nan,nan,nan
1980-04-11 10:29:14,1,2.75714,0.0857143,1.22857,0.48107,1,1,14714.5,20857.8,1694,0.79832894,-4.6628389,323.17383,274.43164,19.3918,323.588,5.79802,8.42022,15.5859,18.5563
1980-04-11 10:30:35,1,2.7,1.21429,2.45714,0.284282,1,1,19482.9,13097.1,1694,0.79832333,-4.6629095,323.1582,274.43164,26.5332,324.571,0.522169,5.83673,17.9343,14.7044
1980-04-11 10:31:56,1,2.61667,1.15,2.6,0.117851,1,1,14992.6,17773.4,1694,0.79831773,-4.6629801,323.14648,274.43164,19.8939,324.175,-4.35613,5.34616,15.7325,17.1294
1980-04-11 10:33:15,1,2.64286,1.28571,2.81429,0.24908,1,1,20564.1,13747.7,1694,0.79830647,-4.6631222,323.13501,274.43188,26.5406,323.549,1.1828,5.5874,18.4252,15.0651
1980-04-11 10:35:57,-1,nan,nan,nan,nan,1,4,nan,nan,1694,0.79829526,-4.6632643,323.11157,274.43188,nan,nan,nan,nan,nan,nan
1980-04-11 10:37:18,-1,nan,nan,nan,nan,1,3,nan,nan,1694,0.79828405,-4.6634064,323.1001,274.43213,nan,323.259,-4.75749,4.81282,nan,nan
1980-04-11 10:38:41,1,2.9,0.616667,1.7,0.279384,1,1,16837.1,10481.5,1694,0.79827839,-4.6634769,323.08447,274.43213,33.195,325.279,2.11558,9.62484,16.6722,13.1543
1980-04-11 10:40:02,1,3.01429,1.11429,1.87143,0.28067,1,1,13910.4,17685.9,1694,0.79826719,-4.663619,323.07275,274.43213,19.1584,323.469,-3.14037,7.00588,15.154,17.0872
1980-04-11 10:41:23,1,2.68333,1.23333,1.83333,0.364005,1,1,17276.2,12429.2,1694,0.79826158,-4.6636906,323.06104,274.43213,28.2755,323.726,0.778757,9.25239,16.8881,14.3245
1980-04-11 10:42:44,1,3.17143,1.14286,1.81429,0.30706,1,1,12786.4,18070.5,1694,0.79825592,-4.6637611,323.04956,274.43237,18.8806,324.167,-2.82119,5.36906,14.5289,17.272
1980-04-11 10:44:05,1,2.97143,1.1,2.05714,0.28067,1,1,17958.2,11079.3,1694,0.79824471,-4.6639032,323.03784,274.43237,29.0373,326.065,1.31963,6.30043,17.2183,13.5243
1980-04-11 10:45:26,1,2.8,1.0,2.03333,0.314466,1,1,12876.8,20266.1,1694,0.79823911,-4.6639738,323.02612,274.43237,20.0937,324.97,-2.05814,5.02046,14.5802,18.2912